Content
SEND FEEDBACK

Daily
Averages
Monthly
Summary
United States of America

BUENA VISTA, VIRGINIA


Home > North America > United States > Virginia
Elevation: 84 feet     Latitude: 37 44N     Longitude: 079 21W

WEATHER
 
SELECT A DAY
Number of Records: 211,594;   Date Range: 1/1/95 - 8/12/14
 
SHARE

PRINT THIS DATA

[ ← Previous Day ]
WEATHER ALMANAC - DECEMBER 31, 2013
[ Next Day → ]
[ °C ]   °F
Weather ElementAverageHighLow
Temperature37.1 °F46.9 °F (2:54 pm)25 °F (7:54 am)
Dewpoint20.5 °F30 °F (2:54 am)14 °F (7:54 pm)
Humidity55.9 %96 % (5:54 am)30 % (2:54 pm)
Barometer30.23 in30.36 in (10:54 pm)30.14 in (1:54 am)
Wind Speed5.1 mph15 mph (11:54 am)
Wind Gust29.9 mph (12:54 pm)
Weather ElementAverage
Visibility9.9 mi
Wind DirectionSSE (150.9 °)

Weather ElementTotal
Precipitation---
Heating Degree Days29.1 (Base 65)
Averaged from 23 records on December 31, 2013
WEATHER CONDITIONS BREAKOUT
WIND DIRECTION BREAKOUT
WEATHER BY HOUR - DECEMBER 31, 2013
[ °C ]   °F
Local TimeTemperatureDewpointHumidityBarometerVisibilityWind DirectionWind SpeedGust SpeedPrecipitationEventsConditions
1:54 AM36.0 °F27.0 °F70 %30.14 in10.0 miEast (80°)3.5 mph0.00 inOvercast
2:54 AM35.1 °F30.0 °F82 %30.15 in10.0 miCalm0.00 inOvercast
3:54 AM34.0 °F30.0 °F85 %30.15 in10.0 miCalmOvercast
4:54 AM32.0 °F30.0 °F92 %30.15 in10.0 miCalmScattered Clouds
5:54 AM28.0 °F27.0 °F96 %30.18 in10.0 miCalmClear
6:54 AM27.0 °F25.0 °F92 %30.19 in10.0 miCalmClear
7:54 AM25.0 °F24.1 °F96 %30.20 in7.0 miCalmClear
8:54 AM34.0 °F28.9 °F82 %30.21 in10.0 miSW (220°)4.6 mphClear
9:54 AM39.0 °F23.0 °F53 %30.22 in10.0 miWest (260°)8.1 mphClear
10:54 AM42.1 °F19.9 °F41 %30.23 in10.0 miWest (280°)9.2 mph17.3 mphClear
11:54 AM45.0 °F18.0 °F34 %30.20 in10.0 miWest (280°)15.0 mph24.2 mphClear
12:54 PM45.0 °F17.1 °F33 %30.19 in10.0 miWest (280°)15.0 mph29.9 mphClear
1:54 PM46.0 °F18.0 °F33 %30.18 in10.0 miWNW (290°)11.5 mph24.2 mphClear
2:54 PM46.9 °F17.1 °F30 %30.20 in10.0 miWest (260°)9.2 mph21.9 mphClear
3:54 PM45.0 °F15.1 °F30 %30.22 in10.0 miWest (280°)8.1 mph16.1 mphClear
4:54 PM42.1 °F15.1 °F34 %30.24 in10.0 miVariable5.8 mphClear
5:54 PM39.9 °F15.1 °F36 %30.28 in10.0 miWSW (250°)4.6 mphClear
6:54 PM37.9 °F15.1 °F39 %30.31 in10.0 miWest (260°)4.6 mphClear
7:54 PM37.0 °F14.0 °F39 %30.32 in10.0 miVariable3.5 mphClear
8:54 PM35.1 °F15.1 °F44 %30.32 in10.0 miWSW (250°)3.5 mphClear
9:54 PM35.1 °F15.1 °F44 %30.35 in10.0 miVariable4.6 mphClear
10:54 PM32.0 °F15.1 °F50 %30.36 in10.0 miSW (230°)3.5 mphClear
11:54 PM33.1 °F16.0 °F50 %30.36 in10.0 miWSW (250°)3.5 mphClear
Hourly data recorded from KLYH, located miles away from Buena Vista, Virginia







STORIES FROM OUR PARTNERS